Погода в Красной Горке

Россия / Смоленская область     54°41′26″N   31°03′05″E
темп.,
°C
ветер,
м/с
пор.,
м/с
влажн.,
%
обл.,
%
осадки,
мм/ч
давл.,
гПа
погр.,
м
16 апреля, пт
пт1600:00+9св71593100 0.0 1014525
03:00+9всв61391100 0.3 1013566
06:00+8всв61393100 1.4 1014602
09:00+9всв61088100 2.4 1015742
12:00+12всв71079100 0.3 10151093
15:00+12всв7108043 1.6 1016963
18:00+12всв71184100 1.3 1016645
21:00+9св61190100 2.6 1017433
17 апреля, сб
сб1700:00+8всв4993100 0.3 1017300
03:00+7всв379761 0.4 1018161
06:00+6всв369740 0.1 1018118
09:00+10в45775 0.1 1020453
12:00+13всв455982 0.0 10201344
15:00+13ссв6771100 0.3 10201118
18:00+10ссв51288100 3.4 1019845
21:00+10св6148189 3.5 1019636
18 апреля, вс
вс1800:00+9св7148199 0.0 1018505
03:00+7св614829 0.0 1018449
06:00+6св61380100 0.0 1019524
09:00+8всв7977100 0.0 1020839
12:00+9всв5769100 0.0 10211174
15:00+8св5675100 0.1 1021839
18:00+8св6778100 0.0 1022681
21:00+6св598288 0.1 1022611
19 апреля, пн
пн1900:00+5св488767 0.0 1022491
03:00+5св4885100 0.0 1022609
06:00+5св5986100 0.1 1021442
09:00+6св5987100 0.1 1021725
12:00+8всв687699 0.1 1021969
15:00+9св6869100 0.2 10201215
18:00+8св797999 0.3 10191115
21:00+6св61089100 0.4 10181014
20 апреля, вт
вт2000:00+6св61090100 0.1 1016953
03:00+6всв51193100 1.1 1014820
06:00+6всв71294100 2.7 1013725
09:00+6всв71287100 2.9 1012887
12:00+7всв81386100 0.0 1010978
15:00+7св91486100 1.0 10061071
18:00+4св91797100 7.1 1002952
21:00+3ссв81597100 11.3 1000921